Track STARLINK-2407 now! 10-day predictions STARLINK-2407 is classified as:
1 47822U 21018AM 21110.83335648 -.01063009 00000-0 -45119-1 0 9992 2 47822 53.0496 350.2170 0001294 61.9927 281.9844 15.25558273 7242